Regional Weather Roundup
Issued by NWS Kansas City/Pleasant Hill, MO

Home | Current Version | Previous Version | Text Only | Print | Product List | Glossary On
Versions: 1 2 3 4 5 6 7 8 9 10 11 12 13 14 15 16 17 18 19 20 21 22 23 24 25 26 27 28 29 30 31 32 33 34 35 36 37 38 39 40 41 42 43 44 45 46 47 48 49 50
000
ASUS43 KEAX 101311
RWREAX

WEATHER ROUNDUP FOR EASTERN KANSAS AND NORTHWEST MISSOURI
NATIONAL WEATHER SERVICE KANSAS CITY/PLEASANT HILL MO
800 AM CDT THU JUL 10 2014

KSZ040-057-103>105-MOZ028-029-037-043-101400-
...KANSAS CITY METROPOLITAN AREA...

CITY           SKY/WX    TMP DP  RH WIND       PRES   REMARKS
K.C. INTL      CLOUDY    70  60  70 SE9       30.08R
K.C. DOWNTOWN  CLOUDY    72  60  66 SE6       30.08R
LEES SUMMIT    CLOUDY    68  59  73 SE8       30.10R
OLATHE - IXD   CLOUDY    69  60  73 SE12      30.09R
OLATHE - OJC   CLOUDY    67  60  78 SE8       30.08S
LAWRENCE       CLOUDY    69  63  81 E7        30.07R

$$

MOZ001>008-011>017-020>025-030>033-038>040-044>046-053-054-101400-
...NORTHERN AND CENTRAL MISSOURI...

CITY           SKY/WX    TMP DP  RH WIND       PRES   REMARKS
ST. JOSEPH     PTSUNNY   70  61  73 S3        30.08R
MOSBY          CLOUDY    68  61  77 SE5       30.09R
WARRENSBURG    CLOUDY    68  59  73 E6        30.10S
WHITEMAN AFB   CLOUDY    67  55  65 SE7       30.11R
CLINTON        CLOUDY    68  63  83 CALM      30.11R
SEDALIA        CLOUDY    68  61  78 SE7       30.12S
WARSAW         NOT AVBL
MARSHALL         N/A     70  64  83 SE5       30.13R
CHILLICOTHE      N/A     71  60  68 SE6       30.12R
MOBERLY        SUNNY     70  57  64 SE6       30.15R
KIRKSVILLE     SUNNY     67  61  81 S5        30.15R

$$

MOZ041-047>049-056>058-063>065-088>090-097-101400-
...EASTERN AND SOUTHERN MISSOURI...

CITY           SKY/WX    TMP DP  RH WIND       PRES   REMARKS
ST. LOUIS INTL MOSUNNY   71  59  65 CALM      30.14R
SPIRIT OF STL  SUNNY     66  63  90 CALM      30.13R
COLUMBIA       SUNNY     69  60  73 E8        30.13S
JEFFERSON CITY SUNNY     65  62  90 SE3       30.13R
MEXICO         SUNNY     68  68 100 CALM      30.15R
ROLLA            N/A    N/A N/A N/A MISG      30.13R
LEBANON        PTSUNNY   68  61  77 E3        30.14R
OSAGE BEACH    PTSUNNY   64  59  82 CALM      30.13R
SPRINGFIELD    CLOUDY    69  61  75 SE6       30.11R
BRANSON        MOSUNNY   68  64  88 CALM      30.12R
NEVADA         CLOUDY    66  63  88 CALM      30.11S
JOPLIN         CLOUDY    68  61  78 NE3       30.10R
WEST PLAINS    MOSUNNY   67  61  81 NE3       30.14R
PIEDMONT       FOG       63  63 100 CALM      30.12R VSB 1
MALDEN         MOSUNNY   73  66  78 NE3       30.09R

$$

IAZ060-094-KSZ022-034>040-054-083-096-NEZ052-066-093-101400-
...KANSAS...SOUTHEAST NEBRASKA AND IOWA...

CITY           SKY/WX    TMP DP  RH WIND       PRES   REMARKS
TOPEKA         CLOUDY    72  64  76 SE10      30.05S
MANHATTAN      CLOUDY    71  63  75 E8        30.00F
EMPORIA        CLOUDY    67  63  87 S10       30.05F
CHANUTE        LGT RAIN  68  63  84 S3        30.11R
WICHITA        LGT RAIN  66  66 100 S13       30.00F
OMAHA          CLOUDY    69  61  75 SE9       30.05R
LINCOLN        CLOUDY    72  63  73 SE12      30.03S
FALLS CITY     PTSUNNY   69  62  78 SE7       30.05S
LAMONI         CLOUDY    65  59  81 S7        30.11R
DES MOINES     MOSUNNY   68  59  73 S7        30.10R

$$



USA.gov is the U.S. government's official web portal to all federal, state and local government web resources and services.